Regional Weather Roundup
Issued by NWS

Home | Current Version | Previous Version | Text Only | Print | Product List | Glossary Off
Versions: 1 2 3 4 5 6 7 8 9 10 11 12 13 14 15 16 17 18 19 20 21 22 23 24 25 26 27 28 29 30 31 32 33 34 35 36 37 38 39 40 41 42 43 44 45 46 47 48 49 50

000
ASUS43 KBIS 260002
RWRND

NORTH DAKOTA REGIONAL WEATHER ROUNDUP
NATIONAL WEATHER SERVICE BISMARCK ND
700 PM CDT SUN SEP 25 2016

NOTE: "FAIR" INDICATES FEW OR NO CLOUDS BELOW 12,000 FEET WITH NO
SIGNIFICANT WEATHER AND/OR OBSTRUCTIONS TO VISIBILITY.


NDZ001>003-009>011-017-260100-
NORTHWEST NORTH DAKOTA

CITY           SKY/WX    TMP DP  RH WIND       PRES   REMARKS
WILLISTON      CLEAR     62  31  31 NW17      30.18S
6HR MIN TEMP:  61; 6HR MAX TEMP:  65;

MINOT          CLEAR     60  34  37 W28G38    30.08R
MINOT AFB      CLEAR     60  34  38 NW23G32   30.06R
$$

NDZ018>021-031>035-040>046-260100-
SOUTHWEST NORTH DAKOTA

CITY           SKY/WX    TMP DP  RH WIND       PRES   REMARKS
BISMARCK       CLEAR     62  32  32 NW16G32   30.13R
6HR MIN TEMP:  61; 6HR MAX TEMP:  65;

DICKINSON      CLEAR     58  33  39 NW18G26   30.19R
GARRISON         N/A     59  33  37 NW21G32   30.11R
6HR MIN TEMP:  59; 6HR MAX TEMP:  63;

HETTINGER ARPT CLEAR     60  33  36 NW20G29   30.24R
$$

NDZ004>008-012>016-024-026-027-054-260100-
NORTHEAST NORTH DAKOTA

CITY           SKY/WX    TMP DP  RH WIND       PRES   REMARKS
GRAND FORKS    LGT RAIN  53  48  83 NW12      29.91S
GRND FRKS AFB  DRIZZLE   54  46  72 NW12      29.92R
DEVILS LAKE    CLOUDY    59  41  51 NW20      29.98R
$$

NDZ022-023-025-028>030-036>039-047>053-260100-
SOUTHEAST NORTH DAKOTA

CITY           SKY/WX    TMP DP  RH WIND       PRES   REMARKS
FARGO          CLOUDY    58  43  57 NW15      29.95R
6HR MIN TEMP:  57; 6HR MAX TEMP:  62; 6HR PCP: TRACE;

JAMESTOWN      MOCLDY    60  35  39 NW23G30   30.02R
$$





USA.gov is the U.S. government's official web portal to all federal, state and local government web resources and services.